Location: Santa Giusta
(39.8800°N, 8.6069°E)
Time: 18:10:35
(UTC+00:00)

Nadezhda 2 Rocket - Pass Details

Date: 02 February 2023
Orbit: 947 x 1011 km, 83.0° (Epoch: 31 March)

Event Time Altitude Azimuth Distance (km) Brightness Sun altitude
Rises 18:03:39 0° 354° (N) 3,669 7.5 -15.2°
Reaches altitude 10° 18:06:11 10° 356° (N) 2,710 6.8 -15.7°
Maximum altitude 18:12:23 78° 83° (E) 978 4.4 -16.9°
Drops below altitude 10° 18:18:28 10° 169° (S) 2,663 6.8 -18.0°
Sets 18:20:56 0° 171° (S) 3,602 7.5 -18.5°
